Weather Roundup
Issued by NWS

Home | Current Version | Previous Version | Graphics & Text | Print | Product List | Glossary Off
Versions: 1 2 3 4 5 6 7 8 9 10 11 12 13 14 15 16 17 18 19 20 21 22 23 24 25 26 27 28 29 30 31 32 33 34 35 36 37 38 39 40 41 42 43 44 45 46 47 48 49 50

000
NZUS93 KARX 261359
HRRWXR

CURRENT HOURLY OBSERVATIONS ACROSS
MUCH OF THE UPPER MISSISSIPPI VALLEY
NATIONAL WEATHER SERVICE LA CROSSE WI
900 AM CDT SAT JUL 26 2014


...SOUTHEAST MINNESOTA...


CITY           SKY/WX    TMP DP  RH WIND       PRES   REMARKS
ROCHESTER      CLOUDY    71  69  93 SW7       29.87F FOG
ROCHESTER/MAYO CLOUDY    70  69  95 S3        29.86F
WINONA         CLOUDY    70  66  88 CALM      29.85S
AUSTIN         CLOUDY    72  70  94 SW3       29.86F FOG
ALBERT LEA     CLOUDY    72  72 100 E3        29.83F FOG
DODGE CENTER   CLOUDY    72  72 100 SW5       29.85F FOG
PRESTON        FOG       67  67 100 SW6       29.89S VSB 3/4
OWATONNA       CLOUDY    73  70  88 CALM      29.82F FOG
FARIBAULT      CLOUDY    75  68  78 CALM      29.82F HAZE
$$

...ELSEWHERE IN MINNESOTA...


CITY           SKY/WX    TMP DP  RH WIND       PRES   REMARKS
MINNEAPOLIS    PTSUNNY   76  67  73 CALM      29.83S
INTNL FALLS    SUNNY     66  59  78 W6        29.77S
DULUTH         SUNNY     72  58  61 W9        29.81R
RED WING       CLOUDY    75  70  83 CALM      29.82F
REDWOOD FALLS  LGT RAIN  70  69  97 W6        29.86S FOG
MANKATO        CLOUDY    72  66  83 E3        29.81F
WORTHINGTON    PTSUNNY   73  70  88 W5        29.89R
FAIRMONT       CLOUDY    73  61  64 S7        29.84R
$$

...SOUTHWEST WISCONSIN...


CITY           SKY/WX    TMP DP  RH WIND       PRES   REMARKS
LA CROSSE      PTSUNNY   71  65  81 CALM      29.87R
PRAIRIE DU CHI MOSUNNY   70  63  78 CALM      29.86R
BOSCOBEL       PTSUNNY   72  64  76 CALM      29.85F
LONE ROCK      NOT AVBL
PLATTEVILLE    CLOUDY    68  64  85 CALM      29.87S
FORT MC COY    CLOUDY    69  65  86 W5        29.85S
VIROQUA        FAIR      68  67  96 W5        29.85F
WIS DELLS      PTSUNNY   70  61  73 W9        29.86R
$$

...ELSEWHERE IN WISCONSIN...


CITY           SKY/WX    TMP DP  RH WIND       PRES   REMARKS
MILWAUKEE      PTSUNNY   71  60  68 SW5       29.85F
MADISON        CLOUDY    70  62  76 W3        29.86R
GREEN BAY      CLOUDY    70  65  84 W7        29.81F
EAU CLAIRE     CLOUDY    72  70  93 W8        29.84R
BLACK RVR FLS  CLOUDY    69  68  96 SW3       29.83S
MEDFORD        FOG       66  65  99 W6        29.83F VSB 1/2
WAUSAU         CLOUDY    68  66  93 W7        29.82R
WIS RAPIDS     CLOUDY    70  65  84 W8        29.85S
MARSHFIELD     FOG       68  66  93 W8        29.84R VSB 3/4
RICE LAKE      PTSUNNY   73  68  83 W6        29.84R
$$

...NORTHEAST IOWA...


CITY           SKY/WX    TMP DP  RH WIND       PRES   REMARKS
WATERLOO       MOSUNNY   72  66  81 E5        29.84S
DUBUQUE        CLOUDY    68  64  87 NW6       29.88R
DECORAH        PTSUNNY   68  66  94 VRB5      29.88R
MASON CITY     FOG       71  71 100 CALM      29.87F VSB 3/4
CHARLES CITY   CLOUDY    70  68  94 CALM      29.87F
OELWEIN        MOSUNNY   70  66  88 CALM      29.88R
$$

...ELSEWHERE IN IOWA...


CITY           SKY/WX    TMP DP  RH WIND       PRES   REMARKS
DES MOINES     PTSUNNY   73  68  84 SW5       29.85R
IOWA CITY      CLOUDY    69  65  86 NE15      29.80F
FORT DODGE     MOSUNNY   73  72  94 NW3       29.87R
MARSHALLTOWN   PTSUNNY   72  67  84 E8        29.82F
CEDAR RAPIDS   CLOUDY    69  64  84 NE12      29.82F
$$

...NORTHERN ILLINOIS...


CITY           SKY/WX    TMP DP  RH WIND       PRES   REMARKS
CHICAGO-OHARE  CLOUDY    72  61  68 SW8       29.85S
DUPAGE         CLOUDY    73  64  73 SW6       29.84S
CHICAGO-MIDWAY CLOUDY    73  64  73 S7        29.85S
MOLINE         CLOUDY    71  64  78 CALM      29.85R
ROCKFORD       PTSUNNY   72  63  73 CALM      29.85F
STERLING       MOSUNNY   73  64  73 W3        29.84R
PEORIA         PTSUNNY   76  68  76 SW8       29.82S
$$

NOTE: "FAIR" INDICATES FEW OR NO CLOUDS BELOW 12,000 FEET WITH NO
SIGNIFICANT WEATHER AND/OR OBSTRUCTIONS TO VISIBILITY. WIND
SPEEDS ARE IN MILES-PER-HOUR.



USA.gov is the U.S. government's official web portal to all federal, state and local government web resources and services.